Location: Cassano d�Adda
(45.5333°N, 9.5167°E)
Time: 02:33:47
(UTC+00:00)

RESURS DK-1 - Pass Details

Date: 08 December 2019
Orbit: 554 x 564 km, 69.9° (Epoch: 25 January)

Event Time Altitude Azimuth Distance (km) Brightness Sun altitude
Rises 16:29:22 0° 201° (SSW) 2,719 6.6 -8.7°
Reaches altitude 10° 16:31:33 10° 199° (SSW) 1,830 5.6 -9.1°
Maximum altitude 16:35:38 73° 116° (ESE) 584 2.3 -9.7°
Drops below altitude 10° 16:39:45 10° 31° (NNE) 1,848 4.5 -10.4°
Enters shadow 16:39:59 - 31° (NNE) 1,947 4.6 -10.4°
